contact:dominique.lefevre@mio.osupytheas.fr, maurice.libes@osupytheas.fr, didier.mallarino@osupytheas.fr
Project:EMSO http://www.emso-fr.org/EMSO-France
Depth: 2436.0 m
Title:EMSO Ligure Ouest : Data MII capteur MICROCAT
DateTime_Computer,Latitude,Longitude,Temperature,Conductivity,Pressure,DateTime_Instrument
DateTime_Computer,Latitude,Longitude,degC,S m-1,dbar,DateTime_Instrument
2020-11-14T00:00:14Z,42.805,6.029,13.2994,4.60063,2470.04,2020-11-14T02:01:10Z
2020-11-14T00:03:17Z,42.805,6.029,13.3009,4.60083,2470.04,2020-11-14T02:04:14Z
2020-11-14T00:06:20Z,42.805,6.029,13.2995,4.60054,2470.1,2020-11-14T02:07:17Z
2020-11-14T00:09:23Z,42.805,6.029,13.3018,4.60105,2470.063,2020-11-14T02:10:20Z
2020-11-14T00:12:26Z,42.805,6.029,13.3023,4.60069,2470.077,2020-11-14T02:13:23Z
2020-11-14T00:15:30Z,42.805,6.029,13.3058,4.60127,2470.063,2020-11-14T02:16:26Z
2020-11-14T00:18:33Z,42.805,6.029,13.3068,4.60067,2470.077,2020-11-14T02:19:29Z
2020-11-14T00:21:36Z,42.805,6.029,13.3021,4.60059,2470.04,2020-11-14T02:22:32Z
2020-11-14T00:24:39Z,42.805,6.029,13.3058,4.60047,2470.03,2020-11-14T02:25:35Z
2020-11-14T00:27:42Z,42.805,6.029,13.3025,4.60067,2470.053,2020-11-14T02:28:39Z
2020-11-14T00:30:45Z,42.805,6.029,13.3029,4.60064,2470.03,2020-11-14T02:31:42Z
2020-11-14T00:33:48Z,42.805,6.029,13.3063,4.60015,2470.04,2020-11-14T02:34:45Z
2020-11-14T00:36:51Z,42.805,6.029,13.3057,4.60010,2470.03,2020-11-14T02:37:48Z
2020-11-14T00:39:55Z,42.805,6.029,13.3042,4.60041,2470.04,2020-11-14T02:40:51Z
2020-11-14T00:42:58Z,42.805,6.029,13.3018,4.60026,2470.017,2020-11-14T02:43:54Z
2020-11-14T00:46:01Z,42.805,6.029,13.3006,4.60062,2470.077,2020-11-14T02:46:57Z
2020-11-14T00:49:04Z,42.805,6.029,13.3036,4.60059,2470.053,2020-11-14T02:50:00Z
2020-11-14T00:52:07Z,42.805,6.029,13.3015,4.60035,2470.067,2020-11-14T02:53:04Z
2020-11-14T00:55:10Z,42.805,6.029,13.3021,4.60011,2470.03,2020-11-14T02:56:07Z
2020-11-14T00:58:13Z,42.805,6.029,13.3059,4.60010,2470.087,2020-11-14T02:59:10Z
2020-11-14T01:01:16Z,42.805,6.029,13.2995,4.60039,2470.04,2020-11-14T03:02:13Z
2020-11-14T01:04:20Z,42.805,6.029,13.3034,4.60015,2470.077,2020-11-14T03:05:16Z
2020-11-14T01:07:23Z,42.805,6.029,13.3012,4.60047,2470.04,2020-11-14T03:08:19Z
2020-11-14T01:10:26Z,42.805,6.029,13.3019,4.60026,2470.04,2020-11-14T03:11:22Z
2020-11-14T01:13:29Z,42.805,6.029,13.3030,4.60016,2470.053,2020-11-14T03:14:25Z
2020-11-14T01:16:32Z,42.805,6.029,13.3002,4.60032,2470.1,2020-11-14T03:17:29Z
2020-11-14T01:19:35Z,42.805,6.029,13.3006,4.60025,2470.063,2020-11-14T03:20:32Z
2020-11-14T01:22:38Z,42.805,6.029,13.3024,4.60052,2470.077,2020-11-14T03:23:35Z
2020-11-14T01:25:41Z,42.805,6.029,13.3041,4.60061,2470.077,2020-11-14T03:26:38Z
2020-11-14T01:28:45Z,42.805,6.029,13.3056,4.60019,2470.04,2020-11-14T03:29:41Z
2020-11-14T01:31:48Z,42.805,6.029,13.3043,4.60021,2470.077,2020-11-14T03:32:44Z
2020-11-14T01:34:51Z,42.805,6.029,13.3009,4.60037,2470.04,2020-11-14T03:35:47Z
2020-11-14T01:37:54Z,42.805,6.029,13.3009,4.60046,2470.077,2020-11-14T03:38:50Z
2020-11-14T01:40:57Z,42.805,6.029,13.3018,4.60006,2470.087,2020-11-14T03:41:54Z
2020-11-14T01:44:00Z,42.805,6.029,13.3032,4.60039,2470.087,2020-11-14T03:44:57Z
2020-11-14T01:47:03Z,42.805,6.029,13.3037,4.60026,2470.077,2020-11-14T03:48:00Z
2020-11-14T01:50:06Z,42.805,6.029,13.3053,4.60013,2470.087,2020-11-14T03:51:03Z
2020-11-14T01:53:10Z,42.805,6.029,13.3051,4.60025,2470.1,2020-11-14T03:54:06Z
2020-11-14T01:56:13Z,42.805,6.029,13.3020,4.60085,2470.087,2020-11-14T03:57:09Z
2020-11-14T01:59:16Z,42.805,6.029,13.3041,4.60028,2470.063,2020-11-14T04:00:12Z
2020-11-14T02:02:19Z,42.805,6.029,13.3022,4.60019,2470.11,2020-11-14T04:03:15Z
2020-11-14T02:05:22Z,42.805,6.029,13.3031,4.60044,2470.1,2020-11-14T04:06:18Z
2020-11-14T02:08:25Z,42.805,6.029,13.3031,4.60059,2470.1,2020-11-14T04:09:22Z
2020-11-14T02:11:28Z,42.805,6.029,13.3014,4.60031,2470.11,2020-11-14T04:12:25Z
2020-11-14T02:14:31Z,42.805,6.029,13.3019,4.60014,2470.11,2020-11-14T04:15:28Z
2020-11-14T02:17:35Z,42.805,6.029,13.3025,4.60034,2470.1,2020-11-14T04:18:31Z
2020-11-14T02:20:38Z,42.805,6.029,13.3010,4.60042,2470.124,2020-11-14T04:21:34Z
2020-11-14T02:23:41Z,42.805,6.029,13.3045,4.60047,2470.124,2020-11-14T04:24:37Z
2020-11-14T02:26:44Z,42.805,6.029,13.3032,4.60024,2470.087,2020-11-14T04:27:40Z
2020-11-14T02:29:47Z,42.805,6.029,13.3007,4.60036,2470.11,2020-11-14T04:30:43Z
2020-11-14T02:32:50Z,42.805,6.029,13.3029,4.60047,2470.124,2020-11-14T04:33:47Z
2020-11-14T02:35:53Z,42.805,6.029,13.3031,4.60007,2470.147,2020-11-14T04:36:50Z
2020-11-14T02:38:56Z,42.805,6.029,13.3021,4.60067,2470.11,2020-11-14T04:39:53Z
2020-11-14T02:42:00Z,42.805,6.029,13.3008,4.60031,2470.1,2020-11-14T04:42:56Z
2020-11-14T02:45:03Z,42.805,6.029,13.3012,4.60035,2470.11,2020-11-14T04:45:59Z
2020-11-14T02:48:06Z,42.805,6.029,13.3006,4.60024,2470.124,2020-11-14T04:49:02Z
2020-11-14T02:51:09Z,42.805,6.029,13.3015,4.60029,2470.11,2020-11-14T04:52:05Z
2020-11-14T02:54:12Z,42.805,6.029,13.2996,4.60029,2470.147,2020-11-14T04:55:08Z
2020-11-14T02:57:15Z,42.805,6.029,13.2996,4.60043,2470.133,2020-11-14T04:58:12Z
2020-11-14T03:00:18Z,42.805,6.029,13.3012,4.60014,2470.133,2020-11-14T05:01:15Z
2020-11-14T03:03:21Z,42.805,6.029,13.3012,4.60026,2470.133,2020-11-14T05:04:18Z
2020-11-14T03:06:24Z,42.805,6.029,13.3011,4.60051,2470.171,2020-11-14T05:07:21Z
2020-11-14T03:09:28Z,42.805,6.029,13.3014,4.60049,2470.171,2020-11-14T05:10:24Z
2020-11-14T03:12:31Z,42.805,6.029,13.3031,4.60016,2470.156,2020-11-14T05:13:27Z
2020-11-14T03:15:34Z,42.805,6.029,13.3061,4.60054,2470.147,2020-11-14T05:16:30Z
2020-11-14T03:18:37Z,42.805,6.029,13.3031,4.60067,2470.18,2020-11-14T05:19:33Z
2020-11-14T03:21:40Z,42.805,6.029,13.3055,4.60081,2470.156,2020-11-14T05:22:37Z
2020-11-14T03:24:43Z,42.805,6.029,13.3020,4.60028,2470.18,2020-11-14T05:25:40Z
2020-11-14T03:27:46Z,42.805,6.029,13.3031,4.60017,2470.171,2020-11-14T05:28:43Z
2020-11-14T03:30:49Z,42.805,6.029,13.3033,4.60041,2470.171,2020-11-14T05:31:46Z
2020-11-14T03:33:53Z,42.805,6.029,13.3038,4.60036,2470.18,2020-11-14T05:34:49Z
2020-11-14T03:36:56Z,42.805,6.029,13.3015,4.60015,2470.18,2020-11-14T05:37:52Z
2020-11-14T03:39:59Z,42.805,6.029,13.3014,4.60002,2470.18,2020-11-14T05:40:55Z
2020-11-14T03:43:02Z,42.805,6.029,13.3039,4.60011,2470.194,2020-11-14T05:43:58Z
2020-11-14T03:46:05Z,42.805,6.029,13.3006,4.60014,2470.217,2020-11-14T05:47:01Z
2020-11-14T03:49:08Z,42.805,6.029,13.3013,4.60040,2470.24,2020-11-14T05:50:05Z
2020-11-14T03:52:11Z,42.805,6.029,13.3011,4.60036,2470.227,2020-11-14T05:53:08Z
2020-11-14T03:55:14Z,42.805,6.029,13.2998,4.60052,2470.217,2020-11-14T05:56:11Z
2020-11-14T03:58:18Z,42.805,6.029,13.3056,4.60006,2470.194,2020-11-14T05:59:14Z
2020-11-14T04:01:21Z,42.805,6.029,13.3021,4.60020,2470.203,2020-11-14T06:02:17Z
2020-11-14T04:04:24Z,42.805,6.029,13.3006,4.60006,2470.203,2020-11-14T06:05:20Z
2020-11-14T04:07:27Z,42.805,6.029,13.3005,4.60014,2470.264,2020-11-14T06:08:23Z
2020-11-14T04:10:30Z,42.805,6.029,13.2994,4.60027,2470.227,2020-11-14T06:11:26Z
2020-11-14T04:13:33Z,42.805,6.029,13.2993,4.60014,2470.264,2020-11-14T06:14:30Z
2020-11-14T04:16:36Z,42.805,6.029,13.3021,4.59998,2470.264,2020-11-14T06:17:33Z
2020-11-14T04:19:39Z,42.805,6.029,13.2992,4.60021,2470.217,2020-11-14T06:20:36Z
2020-11-14T04:22:43Z,42.805,6.029,13.3000,4.60003,2470.25,2020-11-14T06:23:39Z
2020-11-14T04:25:46Z,42.805,6.029,13.2995,4.60038,2470.227,2020-11-14T06:26:42Z
2020-11-14T04:28:49Z,42.805,6.029,13.2996,4.60036,2470.24,2020-11-14T06:29:45Z
2020-11-14T04:31:52Z,42.805,6.029,13.2998,4.60044,2470.25,2020-11-14T06:32:48Z
2020-11-14T04:34:55Z,42.805,6.029,13.3021,4.60026,2470.25,2020-11-14T06:35:51Z
2020-11-14T04:37:58Z,42.805,6.029,13.3026,4.60019,2470.227,2020-11-14T06:38:55Z
2020-11-14T04:41:01Z,42.805,6.029,13.2994,4.60030,2470.25,2020-11-14T06:41:58Z
2020-11-14T04:44:04Z,42.805,6.029,13.2990,4.60006,2470.264,2020-11-14T06:45:01Z
2020-11-14T04:47:07Z,42.805,6.029,13.3031,4.60009,2470.297,2020-11-14T06:48:04Z
2020-11-14T04:50:11Z,42.805,6.029,13.3009,4.60019,2470.273,2020-11-14T06:51:07Z
2020-11-14T04:53:14Z,42.805,6.029,13.3014,4.60026,2470.24,2020-11-14T06:54:10Z
2020-11-14T04:56:17Z,42.805,6.029,13.3025,4.60036,2470.287,2020-11-14T06:57:13Z
2020-11-14T04:59:20Z,42.805,6.029,13.3023,4.60042,2470.31,2020-11-14T07:00:16Z
2020-11-14T05:02:23Z,42.805,6.029,13.3017,4.60051,2470.25,2020-11-14T07:03:20Z
2020-11-14T05:05:26Z,42.805,6.029,13.3002,4.60037,2470.297,2020-11-14T07:06:23Z
2020-11-14T05:08:29Z,42.805,6.029,13.3009,4.60057,2470.287,2020-11-14T07:09:26Z
2020-11-14T05:11:32Z,42.805,6.029,13.3018,4.60111,2470.264,2020-11-14T07:12:29Z
2020-11-14T05:14:36Z,42.805,6.029,13.3023,4.60084,2470.287,2020-11-14T07:15:32Z
2020-11-14T05:17:39Z,42.805,6.029,13.3021,4.60045,2470.273,2020-11-14T07:18:35Z
2020-11-14T05:20:42Z,42.805,6.029,13.3024,4.60026,2470.25,2020-11-14T07:21:38Z
2020-11-14T05:23:45Z,42.805,6.029,13.2995,4.60041,2470.287,2020-11-14T07:24:41Z
2020-11-14T05:26:48Z,42.805,6.029,13.3006,4.60064,2470.31,2020-11-14T07:27:45Z
2020-11-14T05:29:51Z,42.805,6.029,13.3023,4.60077,2470.264,2020-11-14T07:30:48Z
2020-11-14T05:32:54Z,42.805,6.029,13.3058,4.60081,2470.334,2020-11-14T07:33:51Z
2020-11-14T05:35:57Z,42.805,6.029,13.3035,4.60086,2470.287,2020-11-14T07:36:54Z
2020-11-14T05:39:01Z,42.805,6.029,13.3043,4.60059,2470.273,2020-11-14T07:39:57Z
2020-11-14T05:42:04Z,42.805,6.029,13.3029,4.60010,2470.31,2020-11-14T07:43:00Z
2020-11-14T05:45:07Z,42.805,6.029,13.3036,4.60045,2470.31,2020-11-14T07:46:03Z
2020-11-14T05:48:10Z,42.805,6.029,13.3017,4.60053,2470.297,2020-11-14T07:49:06Z
2020-11-14T05:51:13Z,42.805,6.029,13.3044,4.60044,2470.273,2020-11-14T07:52:09Z
2020-11-14T05:54:16Z,42.805,6.029,13.3038,4.60074,2470.334,2020-11-14T07:55:13Z
2020-11-14T05:57:19Z,42.805,6.029,13.3051,4.60048,2470.297,2020-11-14T07:58:16Z
2020-11-14T06:00:22Z,42.805,6.029,13.3034,4.60081,2470.334,2020-11-14T08:01:19Z
2020-11-14T06:03:26Z,42.805,6.029,13.3031,4.60069,2470.32,2020-11-14T08:04:22Z
2020-11-14T06:06:29Z,42.805,6.029,13.3037,4.60066,2470.334,2020-11-14T08:07:25Z
2020-11-14T06:09:32Z,42.805,6.029,13.3014,4.60079,2470.287,2020-11-14T08:10:28Z
2020-11-14T06:12:35Z,42.805,6.029,13.2994,4.60054,2470.273,2020-11-14T08:13:31Z
2020-11-14T06:15:38Z,42.805,6.029,13.3015,4.60057,2470.297,2020-11-14T08:16:34Z
2020-11-14T06:18:41Z,42.805,6.029,13.3015,4.60066,2470.273,2020-11-14T08:19:38Z
2020-11-14T06:21:44Z,42.805,6.029,13.3032,4.60054,2470.287,2020-11-14T08:22:41Z
2020-11-14T06:24:47Z,42.805,6.029,13.3016,4.60061,2470.273,2020-11-14T08:25:44Z
2020-11-14T06:27:51Z,42.805,6.029,13.3029,4.60059,2470.32,2020-11-14T08:28:47Z
2020-11-14T06:30:54Z,42.805,6.029,13.3025,4.60063,2470.31,2020-11-14T08:31:50Z
2020-11-14T06:33:57Z,42.805,6.029,13.3032,4.60067,2470.273,2020-11-14T08:34:53Z
2020-11-14T06:37:00Z,42.805,6.029,13.3030,4.60057,2470.31,2020-11-14T08:37:56Z
2020-11-14T06:40:03Z,42.805,6.029,13.3015,4.60048,2470.287,2020-11-14T08:40:59Z
2020-11-14T06:43:06Z,42.805,6.029,13.3046,4.60054,2470.32,2020-11-14T08:44:03Z
2020-11-14T06:46:09Z,42.805,6.029,13.3026,4.60062,2470.31,2020-11-14T08:47:06Z
2020-11-14T06:49:12Z,42.805,6.029,13.3040,4.60056,2470.31,2020-11-14T08:50:09Z
2020-11-14T06:52:16Z,42.805,6.029,13.3011,4.60068,2470.287,2020-11-14T08:53:12Z
2020-11-14T06:55:19Z,42.805,6.029,13.3015,4.60052,2470.297,2020-11-14T08:56:15Z
2020-11-14T06:58:22Z,42.805,6.029,13.3018,4.60057,2470.297,2020-11-14T08:59:18Z
2020-11-14T07:01:25Z,42.805,6.029,13.3043,4.60092,2470.334,2020-11-14T09:02:21Z
2020-11-14T07:04:28Z,42.805,6.029,13.3029,4.60051,2470.297,2020-11-14T09:05:24Z
2020-11-14T07:07:31Z,42.805,6.029,13.3019,4.60075,2470.32,2020-11-14T09:08:28Z
2020-11-14T07:10:34Z,42.805,6.029,13.3045,4.60062,2470.273,2020-11-14T09:11:31Z
2020-11-14T07:13:37Z,42.805,6.029,13.3026,4.60060,2470.31,2020-11-14T09:14:34Z
2020-11-14T07:16:40Z,42.805,6.029,13.3029,4.60057,2470.264,2020-11-14T09:17:37Z
2020-11-14T07:19:44Z,42.805,6.029,13.3023,4.60019,2470.287,2020-11-14T09:20:40Z
2020-11-14T07:22:47Z,42.805,6.029,13.3020,4.60054,2470.31,2020-11-14T09:23:43Z
2020-11-14T07:25:50Z,42.805,6.029,13.3014,4.60057,2470.264,2020-11-14T09:26:46Z
2020-11-14T07:28:53Z,42.805,6.029,13.3032,4.60031,2470.31,2020-11-14T09:29:49Z
2020-11-14T07:31:56Z,42.805,6.029,13.3026,4.60059,2470.297,2020-11-14T09:32:53Z
2020-11-14T07:34:59Z,42.805,6.029,13.3024,4.60063,2470.273,2020-11-14T09:35:56Z
2020-11-14T07:38:02Z,42.805,6.029,13.3029,4.60061,2470.31,2020-11-14T09:38:59Z
2020-11-14T07:41:05Z,42.805,6.029,13.3040,4.60062,2470.25,2020-11-14T09:42:02Z
2020-11-14T07:44:09Z,42.805,6.029,13.3021,4.60047,2470.32,2020-11-14T09:45:05Z
2020-11-14T07:47:12Z,42.805,6.029,13.3040,4.60062,2470.273,2020-11-14T09:48:08Z
2020-11-14T07:50:15Z,42.805,6.029,13.3018,4.60067,2470.32,2020-11-14T09:51:11Z
2020-11-14T07:53:18Z,42.805,6.029,13.3017,4.60049,2470.287,2020-11-14T09:54:14Z
2020-11-14T07:56:21Z,42.805,6.029,13.3006,4.60064,2470.287,2020-11-14T09:57:18Z
2020-11-14T07:59:24Z,42.805,6.029,13.3028,4.60047,2470.273,2020-11-14T10:00:21Z
2020-11-14T08:02:27Z,42.805,6.029,13.3026,4.60044,2470.297,2020-11-14T10:03:24Z
2020-11-14T08:05:30Z,42.805,6.029,13.3021,4.60050,2470.287,2020-11-14T10:06:27Z
2020-11-14T08:08:34Z,42.805,6.029,13.3012,4.60053,2470.297,2020-11-14T10:09:30Z
2020-11-14T08:11:37Z,42.805,6.029,13.3011,4.60050,2470.273,2020-11-14T10:12:33Z
2020-11-14T08:14:40Z,42.805,6.029,13.3020,4.60046,2470.31,2020-11-14T10:15:36Z
2020-11-14T08:17:43Z,42.805,6.029,13.3019,4.60033,2470.297,2020-11-14T10:18:39Z
2020-11-14T08:20:46Z,42.805,6.029,13.3021,4.60037,2470.273,2020-11-14T10:21:43Z
2020-11-14T08:23:49Z,42.805,6.029,13.3013,4.60042,2470.287,2020-11-14T10:24:46Z
2020-11-14T08:26:52Z,42.805,6.029,13.3004,4.60049,2470.264,2020-11-14T10:27:49Z
2020-11-14T08:29:55Z,42.805,6.029,13.3014,4.60046,2470.25,2020-11-14T10:30:52Z
2020-11-14T08:32:59Z,42.805,6.029,13.3003,4.60039,2470.287,2020-11-14T10:33:55Z
2020-11-14T08:36:02Z,42.805,6.029,13.3017,4.60026,2470.25,2020-11-14T10:36:58Z
2020-11-14T08:39:05Z,42.805,6.029,13.3025,4.60039,2470.273,2020-11-14T10:40:01Z
2020-11-14T08:42:08Z,42.805,6.029,13.3000,4.60036,2470.273,2020-11-14T10:43:04Z
2020-11-14T08:45:11Z,42.805,6.029,13.3005,4.60037,2470.25,2020-11-14T10:46:08Z
2020-11-14T08:48:14Z,42.805,6.029,13.3001,4.60035,2470.25,2020-11-14T10:49:11Z
2020-11-14T08:51:17Z,42.805,6.029,13.3008,4.60028,2470.264,2020-11-14T10:52:14Z
2020-11-14T08:54:21Z,42.805,6.029,13.3009,4.60026,2470.227,2020-11-14T10:55:17Z
2020-11-14T08:57:24Z,42.805,6.029,13.3009,4.60030,2470.227,2020-11-14T10:58:20Z
2020-11-14T09:00:27Z,42.805,6.029,13.3007,4.60041,2470.264,2020-11-14T11:01:23Z
2020-11-14T09:03:30Z,42.805,6.029,13.2997,4.60033,2470.25,2020-11-14T11:04:26Z
2020-11-14T09:06:33Z,42.805,6.029,13.3015,4.60045,2470.227,2020-11-14T11:07:29Z
2020-11-14T09:09:36Z,42.805,6.029,13.3015,4.60036,2470.264,2020-11-14T11:10:33Z
2020-11-14T09:12:39Z,42.805,6.029,13.3011,4.60023,2470.24,2020-11-14T11:13:36Z
2020-11-14T09:15:42Z,42.805,6.029,13.3021,4.60011,2470.227,2020-11-14T11:16:39Z
2020-11-14T09:18:46Z,42.805,6.029,13.2991,4.60026,2470.227,2020-11-14T11:19:42Z
2020-11-14T09:21:49Z,42.805,6.029,13.3002,4.60037,2470.25,2020-11-14T11:22:45Z
2020-11-14T09:24:52Z,42.805,6.029,13.3012,4.60032,2470.227,2020-11-14T11:25:48Z
2020-11-14T09:27:55Z,42.805,6.029,13.3016,4.60032,2470.227,2020-11-14T11:28:51Z
2020-11-14T09:30:58Z,42.805,6.029,13.2989,4.60029,2470.278,2020-11-14T11:31:54Z
2020-11-14T09:34:01Z,42.805,6.029,13.3001,4.60033,2470.227,2020-11-14T11:34:58Z
2020-11-14T09:37:04Z,42.805,6.029,13.3012,4.60033,2470.25,2020-11-14T11:38:01Z
2020-11-14T09:40:07Z,42.805,6.029,13.3004,4.60033,2470.217,2020-11-14T11:41:04Z
2020-11-14T09:43:11Z,42.805,6.029,13.2993,4.60044,2470.227,2020-11-14T11:44:07Z
2020-11-14T09:46:14Z,42.805,6.029,13.3019,4.60039,2470.24,2020-11-14T11:47:10Z
2020-11-14T09:49:17Z,42.805,6.029,13.3006,4.60039,2470.217,2020-11-14T11:50:13Z
2020-11-14T09:52:20Z,42.805,6.029,13.3006,4.60036,2470.203,2020-11-14T11:53:16Z
2020-11-14T09:55:23Z,42.805,6.029,13.2996,4.60047,2470.24,2020-11-14T11:56:19Z
2020-11-14T09:58:26Z,42.805,6.029,13.3006,4.60024,2470.166,2020-11-14T11:59:23Z
2020-11-14T10:01:29Z,42.805,6.029,13.3009,4.60033,2470.24,2020-11-14T12:02:26Z
2020-11-14T10:04:32Z,42.805,6.029,13.2993,4.60028,2470.217,2020-11-14T12:05:29Z
2020-11-14T10:07:36Z,42.805,6.029,13.3000,4.60029,2470.203,2020-11-14T12:08:32Z
2020-11-14T10:10:39Z,42.805,6.029,13.2995,4.60026,2470.217,2020-11-14T12:11:35Z
2020-11-14T10:13:42Z,42.805,6.029,13.2996,4.60006,2470.264,2020-11-14T12:14:38Z
2020-11-14T10:16:45Z,42.805,6.029,13.3001,4.60031,2470.194,2020-11-14T12:17:41Z
2020-11-14T10:19:48Z,42.805,6.029,13.2993,4.60019,2470.18,2020-11-14T12:20:45Z
2020-11-14T10:22:51Z,42.805,6.029,13.3013,4.60027,2470.203,2020-11-14T12:23:48Z
2020-11-14T10:25:54Z,42.805,6.029,13.3009,4.60005,2470.24,2020-11-14T12:26:51Z
2020-11-14T10:28:57Z,42.805,6.029,13.2993,4.60029,2470.18,2020-11-14T12:29:54Z
2020-11-14T10:32:01Z,42.805,6.029,13.3007,4.60023,2470.18,2020-11-14T12:32:57Z
2020-11-14T10:35:04Z,42.805,6.029,13.3008,4.60009,2470.18,2020-11-14T12:36:00Z
2020-11-14T10:38:07Z,42.805,6.029,13.2991,4.60016,2470.18,2020-11-14T12:39:03Z
2020-11-14T10:41:10Z,42.805,6.029,13.3018,4.60017,2470.18,2020-11-14T12:42:06Z
2020-11-14T10:44:13Z,42.805,6.029,13.3000,4.60023,2470.171,2020-11-14T12:45:10Z
2020-11-14T10:47:16Z,42.805,6.029,13.3003,4.60023,2470.194,2020-11-14T12:48:13Z
2020-11-14T10:50:19Z,42.805,6.029,13.3009,4.60033,2470.18,2020-11-14T12:51:16Z
2020-11-14T10:53:22Z,42.805,6.029,13.3021,4.60036,2470.156,2020-11-14T12:54:19Z
2020-11-14T10:56:26Z,42.805,6.029,13.3007,4.60019,2470.156,2020-11-14T12:57:22Z
2020-11-14T10:59:29Z,42.805,6.029,13.3014,4.60033,2470.147,2020-11-14T13:00:25Z
2020-11-14T11:02:32Z,42.805,6.029,13.3004,4.59996,2470.156,2020-11-14T13:03:28Z
2020-11-14T11:05:35Z,42.805,6.029,13.3006,4.60014,2470.194,2020-11-14T13:06:31Z
2020-11-14T11:08:38Z,42.805,6.029,13.2996,4.60005,2470.133,2020-11-14T13:09:35Z
2020-11-14T11:11:41Z,42.805,6.029,13.3001,4.60010,2470.156,2020-11-14T13:12:38Z
2020-11-14T11:14:44Z,42.805,6.029,13.2996,4.60014,2470.18,2020-11-14T13:15:41Z
2020-11-14T11:17:47Z,42.805,6.029,13.3000,4.59997,2470.171,2020-11-14T13:18:44Z
2020-11-14T11:20:51Z,42.805,6.029,13.2998,4.60014,2470.171,2020-11-14T13:21:47Z
2020-11-14T11:23:54Z,42.805,6.029,13.3002,4.60014,2470.171,2020-11-14T13:24:50Z
2020-11-14T11:26:57Z,42.805,6.029,13.2992,4.59996,2470.171,2020-11-14T13:27:53Z
2020-11-14T11:30:00Z,42.805,6.029,13.3002,4.60001,2470.133,2020-11-14T13:30:56Z
2020-11-14T11:33:03Z,42.805,6.029,13.3002,4.60007,2470.11,2020-11-14T13:34:00Z
2020-11-14T11:36:06Z,42.805,6.029,13.2998,4.60003,2470.147,2020-11-14T13:37:03Z
2020-11-14T11:39:09Z,42.805,6.029,13.3002,4.60006,2470.124,2020-11-14T13:40:06Z
2020-11-14T11:42:12Z,42.805,6.029,13.3004,4.60019,2470.124,2020-11-14T13:43:09Z
2020-11-14T11:45:16Z,42.805,6.029,13.3009,4.60009,2470.133,2020-11-14T13:46:12Z
2020-11-14T11:48:19Z,42.805,6.029,13.2997,4.60030,2470.171,2020-11-14T13:49:15Z
2020-11-14T11:51:22Z,42.805,6.029,13.3005,4.60026,2470.133,2020-11-14T13:52:18Z
2020-11-14T11:54:25Z,42.805,6.029,13.3003,4.59994,2470.133,2020-11-14T13:55:21Z
2020-11-14T11:57:28Z,42.805,6.029,13.2990,4.60008,2470.124,2020-11-14T13:58:25Z
2020-11-14T12:00:31Z,42.805,6.029,13.3006,4.60019,2470.147,2020-11-14T14:01:28Z
2020-11-14T12:03:34Z,42.805,6.029,13.2993,4.60030,2470.11,2020-11-14T14:04:31Z
2020-11-14T12:06:37Z,42.805,6.029,13.2992,4.60003,2470.11,2020-11-14T14:07:34Z
2020-11-14T12:09:41Z,42.805,6.029,13.2991,4.60012,2470.1,2020-11-14T14:10:37Z
2020-11-14T12:12:44Z,42.805,6.029,13.2996,4.59999,2470.1,2020-11-14T14:13:40Z
2020-11-14T12:15:47Z,42.805,6.029,13.3006,4.60002,2470.087,2020-11-14T14:16:43Z
2020-11-14T12:18:50Z,42.805,6.029,13.2993,4.59996,2470.133,2020-11-14T14:19:46Z
2020-11-14T12:21:53Z,42.805,6.029,13.3000,4.59999,2470.1,2020-11-14T14:22:50Z
2020-11-14T12:24:56Z,42.805,6.029,13.2991,4.59995,2470.124,2020-11-14T14:25:53Z
2020-11-14T12:27:59Z,42.805,6.029,13.2994,4.60012,2470.11,2020-11-14T14:28:56Z
2020-11-14T12:31:02Z,42.805,6.029,13.2990,4.60006,2470.147,2020-11-14T14:31:59Z
2020-11-14T12:34:06Z,42.805,6.029,13.3009,4.60013,2470.133,2020-11-14T14:35:02Z
2020-11-14T12:37:09Z,42.805,6.029,13.2993,4.59996,2470.1,2020-11-14T14:38:05Z
2020-11-14T12:40:12Z,42.805,6.029,13.2993,4.60002,2470.11,2020-11-14T14:41:08Z
2020-11-14T12:43:15Z,42.805,6.029,13.2991,4.60016,2470.087,2020-11-14T14:44:11Z
2020-11-14T12:46:18Z,42.805,6.029,13.2994,4.60019,2470.11,2020-11-14T14:47:15Z
2020-11-14T12:49:21Z,42.805,6.029,13.2993,4.60004,2470.124,2020-11-14T14:50:18Z
2020-11-14T12:52:24Z,42.805,6.029,13.2997,4.59999,2470.11,2020-11-14T14:53:21Z
2020-11-14T12:55:28Z,42.805,6.029,13.2997,4.60008,2470.147,2020-11-14T14:56:24Z
2020-11-14T12:58:31Z,42.805,6.029,13.2993,4.59998,2470.124,2020-11-14T14:59:27Z
2020-11-14T13:01:34Z,42.805,6.029,13.2992,4.60010,2470.087,2020-11-14T15:02:30Z
2020-11-14T13:04:37Z,42.805,6.029,13.3001,4.60014,2470.124,2020-11-14T15:05:33Z
2020-11-14T13:07:40Z,42.805,6.029,13.2995,4.60000,2470.087,2020-11-14T15:08:36Z
2020-11-14T13:10:43Z,42.805,6.029,13.3004,4.59999,2470.11,2020-11-14T15:11:40Z
2020-11-14T13:13:46Z,42.805,6.029,13.2991,4.59999,2470.1,2020-11-14T15:14:43Z
2020-11-14T13:16:49Z,42.805,6.029,13.2988,4.59996,2470.087,2020-11-14T15:17:46Z
2020-11-14T13:19:53Z,42.805,6.029,13.3004,4.60009,2470.087,2020-11-14T15:20:49Z
2020-11-14T13:22:56Z,42.805,6.029,13.2998,4.59999,2470.087,2020-11-14T15:23:52Z
2020-11-14T13:25:59Z,42.805,6.029,13.2995,4.60001,2470.133,2020-11-14T15:26:55Z
2020-11-14T13:29:02Z,42.805,6.029,13.2996,4.60003,2470.11,2020-11-14T15:29:58Z
2020-11-14T13:32:05Z,42.805,6.029,13.2992,4.60003,2470.11,2020-11-14T15:33:01Z
2020-11-14T13:35:08Z,42.805,6.029,13.2996,4.60000,2470.087,2020-11-14T15:36:05Z
2020-11-14T13:38:11Z,42.805,6.029,13.2997,4.60003,2470.124,2020-11-14T15:39:08Z
2020-11-14T13:41:14Z,42.805,6.029,13.2991,4.59994,2470.133,2020-11-14T15:42:11Z
2020-11-14T13:44:18Z,42.805,6.029,13.2997,4.59996,2470.087,2020-11-14T15:45:14Z
2020-11-14T13:47:21Z,42.805,6.029,13.2986,4.59994,2470.087,2020-11-14T15:48:17Z
2020-11-14T13:50:24Z,42.805,6.029,13.2997,4.60000,2470.1,2020-11-14T15:51:20Z
2020-11-14T13:53:27Z,42.805,6.029,13.2995,4.59993,2470.063,2020-11-14T15:54:23Z
2020-11-14T13:56:30Z,42.805,6.029,13.3000,4.60002,2470.133,2020-11-14T15:57:26Z
2020-11-14T13:59:33Z,42.805,6.029,13.2996,4.60003,2470.133,2020-11-14T16:00:30Z
2020-11-14T14:02:36Z,42.805,6.029,13.2996,4.60001,2470.11,2020-11-14T16:03:33Z
2020-11-14T14:05:39Z,42.805,6.029,13.3000,4.59996,2470.133,2020-11-14T16:06:36Z
2020-11-14T14:08:43Z,42.805,6.029,13.2999,4.60004,2470.124,2020-11-14T16:09:39Z
2020-11-14T14:11:46Z,42.805,6.029,13.3002,4.59999,2470.147,2020-11-14T16:12:42Z
2020-11-14T14:14:49Z,42.805,6.029,13.2990,4.60003,2470.133,2020-11-14T16:15:45Z
2020-11-14T14:17:52Z,42.805,6.029,13.2993,4.60000,2470.11,2020-11-14T16:18:48Z
2020-11-14T14:20:55Z,42.805,6.029,13.2994,4.60007,2470.11,2020-11-14T16:21:51Z
2020-11-14T14:23:58Z,42.805,6.029,13.2997,4.60001,2470.11,2020-11-14T16:24:55Z
2020-11-14T14:27:01Z,42.805,6.029,13.2996,4.59996,2470.147,2020-11-14T16:27:58Z
2020-11-14T14:30:04Z,42.805,6.029,13.3004,4.59994,2470.133,2020-11-14T16:31:01Z
2020-11-14T14:33:08Z,42.805,6.029,13.2998,4.59997,2470.133,2020-11-14T16:34:04Z
2020-11-14T14:36:11Z,42.805,6.029,13.2998,4.59998,2470.133,2020-11-14T16:37:07Z
2020-11-14T14:39:14Z,42.805,6.029,13.3002,4.60000,2470.171,2020-11-14T16:40:10Z
2020-11-14T14:42:17Z,42.805,6.029,13.3001,4.59999,2470.156,2020-11-14T16:43:13Z
2020-11-14T14:45:20Z,42.805,6.029,13.2998,4.59994,2470.156,2020-11-14T16:46:17Z
2020-11-14T14:48:23Z,42.805,6.029,13.2993,4.59995,2470.156,2020-11-14T16:49:20Z
2020-11-14T14:51:26Z,42.805,6.029,13.2991,4.59996,2470.171,2020-11-14T16:52:23Z
2020-11-14T14:54:29Z,42.805,6.029,13.2992,4.59998,2470.156,2020-11-14T16:55:26Z
2020-11-14T14:57:33Z,42.805,6.029,13.3001,4.59994,2470.171,2020-11-14T16:58:29Z
2020-11-14T15:00:36Z,42.805,6.029,13.2993,4.59996,2470.203,2020-11-14T17:01:32Z